Station MDRM1 - Mt. Desert Rock, ME Image indicating link to RSS feed of recent meteorological observations for station MDRM1


Conditions at MDRM1 as of
(10:00 pm EDT on 07/13/2024)
0200 GMT on 07/14/2024:
     

Click on the graph icon in the table below to see a time series plot of the last five days of that observation.

5-day plot - Wind Direction Wind Direction (WDIR):SSW ( 210 deg true )
5-day plot - Wind Speed Wind Speed (WSPD): 9 kts
5-day plot - Wind Gust Wind Gust (GST): 9 kts
5-day plot - Atmospheric Pressure Atmospheric Pressure (PRES):29.99 in
5-day plot - Pressure Tendency Pressure Tendency (PTDY):-0.03 in ( Falling )
5-day plot - Air Temperature Air Temperature (ATMP): 66.6 °F
5-day plot - Dew Point Dew Point (DEWP): 66.6 °F
5-day plot - Wind Speed at 10 Meters Wind Speed at 10 meters (WSPD10M): 8 kts
5-day plot - Wind Speed at 20 Meters Wind Speed at 20 meters (WSPD20M): 10 kts
5-day plot -  Wind Speed, Wind Gust and Atmospheric Pressure Combined plot of Wind Speed, Gust, and Air Pressure
Continuous Winds
TIME
(EDT)
5-day plot - Wind Direction WDIR 5-day plot - Wind Speed WSPD
10:00 pmSSW ( 213 deg ) 8 kts
9:50 pmSW ( 222 deg ) 10 kts
9:40 pmWSW ( 255 deg ) 10 kts
9:30 pmW ( 267 deg ) 9 kts
9:20 pmW ( 263 deg ) 10 kts
9:10 pmW ( 269 deg ) 11 kts
 
Peak gust during the measurement hour
TIME
(EDT)
5-day plot - Gust Direction GDR 5-day plot - Gust Speed GST
9:02 pmW ( 270 deg ) 12 kts
Previous observations
TIME
(EDT)
5-day plot - Wind Direction
WDIR
 
5-day plot - Wind Speed
WSPD
kts
5-day plot - Wind Gust
GST
kts
5-day plot - Wave Height
WVHT
ft
5-day plot - Dominant Wave Period
DPD
sec
5-day plot - Average Wave Period
APD
sec
5-day plot - Mean Wave Direction
MWD
 
5-day plot - Atmospheric Pressure
PRES
in
5-day plot - Pressure Tendency
PTDY
in
5-day plot - Air Temperature
ATMP
°F
5-day plot - Water Temperature
WTMP
°F
5-day plot - Dew Point
DEWP
°F
5-day plot - Salinity
SAL
psu
5-day plot - Visibility
VIS
nmi
5-day plot - Tide (above MLLW)
TIDE
ft
2024-07-13 09:00 pm W 12 12----30.03+0.02 64.0- 64.0---
2024-07-13 08:00 pm W 13 14----30.03+0.01 59.2- 59.2---
2024-07-13 07:00 pm SW 15 15----30.03-0.02 61.3- 61.3---
2024-07-13 06:00 pmSSW 20 21----30.01-0.05 61.7- 61.7---
2024-07-13 05:00 pmSSW 19 20----30.02-0.05 60.6- 60.6---
2024-07-13 04:00 pm S 17 18----30.04-0.06 60.8- 60.8---
2024-07-13 03:00 pmSSW 18 19----30.06-0.05 61.7- 61.7---
2024-07-13 02:00 pmSSW 18 19----30.07-0.04 62.4- 62.4---
2024-07-13 01:00 pmSSW 18 19----30.10-0.01 62.1- 62.1---
2024-07-13 12:00 pmSSW 16 16----30.11+0.00 58.5- 58.5---
2024-07-13 11:00 amSSW 13 14----30.11-0.01 58.3- 58.3---
2024-07-13 10:00 am SW 10 10----30.11-0.01 59.0- 59.0---
2024-07-13 09:00 amSSW 19 19----30.12+0.00 60.3- 60.3---
2024-07-13 08:00 amSSW 17 18----30.13+0.00 58.8- 58.8---
2024-07-13 07:00 amSSW 13 13----30.13+0.01 58.5- 58.5---
2024-07-13 06:00 am SW 15 15----30.12+0.01 58.5- 58.5---
2024-07-13 05:00 amSSW 14 15----30.12+0.00 57.9- 57.9---
2024-07-13 04:00 am SW 12 12----30.11+0.00 58.8- 58.8---
2024-07-13 03:00 am W 7 7----30.11+0.00 57.9- 57.9---
2024-07-13 02:00 amSSW 11 11----30.12+0.00 58.1- 58.1---
2024-07-13 01:00 amSSW 15 16----30.12-0.01 59.4- 59.4---
2024-07-13 12:00 amSSW 21 22----30.12+0.00 60.4- 60.4---
2024-07-12 11:00 pmSSW 19 20----30.13+0.02 60.4- 60.4---
2024-07-12 10:00 pm S 17 17----30.13+0.02 60.6- 60.6---